Starlink 2180

operational
NORAD ID: 47762 Int'l Des: 2021-017 Owner: SPXS Country: US Constellation: starlink
LEOCIRCULAR

Starlink 2180について

説明を読み込み中...

リアルタイム位置

3D地球を読み込み中...

次回通過

高度履歴

Altitude vs Time

uPlot chart will show altitude changes over time

軌道要素

1 47762U 21017AS 26061.79716853 .00117553 00000-0 38788-2 0 9996
2 47762 53.1575 251.3210 0001322 62.9685 297.1451 15.30531204276594
Epoch: Mar 2, 2026 • Age: 59 hours

現在のステータス

高度 475.2 km
速度 7.63 km/s
衛星直下点 34.25°N, 67.47°E
打ち上げ日 Mar 4, 2021
運用期間 4.9 years
タイプ internet

技術仕様

分類 Payload
質量 260.00 kg
乾燥質量 248.00 kg
総質量 260.00 kg
長さ 0.20 m
直径 2.80 m
スパン 9.00 m
形状 Box + pan
製造者 SPXS
バスタイプ Starlink
フェーズステータス In Orbit
所有者/国 SPXS/US

大規模コンステレーション

Loading constellations...